Regional Weather Roundup
Issued by NWS

Home | Current Version | Previous Version | Graphics & Text | Print | Product List | Glossary On
Versions: 1 2 3 4 5 6 7 8 9 10 11 12 13 14 15 16 17 18 19 20 21 22 23 24 25 26 27 28 29 30 31 32 33 34 35 36 37 38 39 40 41 42 43 44 45 46 47 48 49 50
000
ASUS43 KIND 301709
RWRIN

WEATHER ROUNDUP FOR INDIANA
NATIONAL WEATHER SERVICE INDIANAPOLIS IN
100 PM EDT THU OCT 30 2014

NOTE: "FAIR" INDICATES FEW OR NO CLOUDS BELOW 12,000 FEET WITH NO
SIGNIFICANT WEATHER AND/OR OBSTRUCTIONS TO VISIBILITY.

* - STATION DOES NOT REPORT WEATHER SUCH AS PRECIPITATION OR FOG.

+ - STATION NOT QUALITY CONTROLLED BY THE NATIONAL WEATHER SERVICE.
    USE DATA WITH CAUTION...ESPECIALLY DEWPOINT AND RELATIVE
    HUMIDITY OBSERVATIONS.

INZ001>003-010>013-019-020-301800-
NORTHWEST INDIANA

CITY           SKY/WX    TMP DP  RH WIND       PRES   REMARKS
GARY /AIRPORT/ PTSUNNY   50  32  50 SW8       30.14S
KNOX *+        MOSUNNY   50  32  48 SW8       30.13F
LA PORTE +     PTSUNNY   52  34  51 S12       30.13F
MICHIGAN CITY+ PTSUNNY   50  30  46 SW7       30.12F
MONTICELLO +   MOSUNNY   50  34  55 S8        30.14F
RENSSELAER +   MOSUNNY   50  34  53 S8        30.14F
VALPARAISO     PTSUNNY   48  32  53 SW10      30.14F

$$

LMZ046-743>745-301800-
SOUTHERN LAKE MICHIGAN

STATION/POSITION TIME  TEMP WIND        PRES
                       AIR  DIR/SP/G
                 (UTC) (F)  (DEG/KT/KT) (MB)
MICHIGAN CITY    1700   47  210/ 10/ 12   N/A

$$

INZ004-005-014>016-021>024-301800-
NORTH CENTRAL INDIANA

CITY           SKY/WX    TMP DP  RH WIND       PRES   REMARKS
ELKHART        PTSUNNY   50  32  50 SW7       30.13F
GOSHEN         CLOUDY    49  35  58 W10       30.13F
LOGANSPORT +   PTSUNNY   50  32  50 S5        30.14F
PERU/GRISSOM   PTSUNNY   50  37  61 S6        30.14F
ROCHESTER +    PTSUNNY   52  34  50 S7        30.14F
SOUTH BEND     PTSUNNY   51  33  50 SW8       30.13F
WARSAW +       CLOUDY    48  34  57 S3        30.13F

$$

INZ006>009-017-018-025>027-301800-
NORTHEAST INDIANA

CITY           SKY/WX    TMP DP  RH WIND       PRES   REMARKS
ANGOLA *+      CLOUDY    46  37  71 SW6       30.12F
AUBURN +       CLOUDY    46  36  66 S5        30.14F
FORT WAYNE     CLOUDY    48  35  60 SW3       30.15F
HUNTINGTON +   CLOUDY   N/A N/A N/A CALM      30.14F

$$

INZ028-029-035-036-043>045-051>053-301800-
WEST CENTRAL INDIANA

CITY           SKY/WX    TMP DP  RH WIND       PRES   REMARKS
CRAWFORDSVL +  PTSUNNY   48  32  53 SW5       30.14
GREENCASTLE +  MOSUNNY   50  34  53 SW3       30.15F
LAFAYETTE      MOSUNNY   49  33  54 S5        30.14F
TERRE HAUTE    MOSUNNY   50  34  54 S5        30.16S

$$

INZ030>032-037>040-046>048-054>057-064-065-301800-
CENTRAL INDIANA

CITY           SKY/WX    TMP DP  RH WIND       PRES   REMARKS
ANDERSON       PTSUNNY   48  30  49 CALM      30.16F
CP ATTERBURY + SUNNY     52  34  50 SE3       30.15F
COLUMBUS       SUNNY     50  32  50 CALM      30.16F
FRANKFORT +    MOSUNNY   51  34  52 S5        30.16S
INDIANAPOLIS   PTSUNNY   50  33  52 SE6       30.14F
-EAGLE CREEK   SUNNY     50  33  52 S6        30.14F
KOKOMO *+      MOSUNNY   50  32  50 SE5       30.15F
MARION +       CLOUDY    47  31  53 NW3       30.15F
MT COMFORT *+  SUNNY     50  23  34 CALM      30.14F
SHELBYVILLE    SUNNY     51  33  50 SW5       30.14F
ZIONSVILLE +   MOSUNNY   51  32  48 SW6       30.14F

$$

INZ033-034-041-042-049-050-058-059-301800-
EAST CENTRAL INDIANA

CITY           SKY/WX    TMP DP  RH WIND       PRES   REMARKS
MUNCIE         CLOUDY    48  32  53 CALM      30.15F

$$

INZ060-061-067>069-081>083-085>088-301800-
SOUTHWEST INDIANA

CITY           SKY/WX    TMP DP  RH WIND       PRES   REMARKS
EVANSVILLE     SUNNY     52  35  52 CALM      30.16F
HUNTINGBURG *+ SUNNY     52  36  54 SW5       30.16F
WASHINGTON +   SUNNY     50  35  56 CALM      30.16S

$$

INZ062-063-066-070>080-084-089>092-301800-
SOUTH CENTRAL AND SOUTHEAST INDIANA

CITY           SKY/WX    TMP DP  RH WIND       PRES   REMARKS
BLOOMINGTON    SUNNY     50  33  52 MISG      30.14F
NORTH VERNON + SUNNY     52  34  50 E5        30.14

$$




USA.gov is the U.S. government's official web portal to all federal, state and local government web resources and services.